Location: Vigo di Fassa
(46.4167°N, 11.6667°E)
Time: 18:35:08
(UTC+00:00)

Meteor 1-18 Rocket - Pass Details

Date: 03 March 2021
Orbit: 836 x 909 km, 81.2° (Epoch: 15 April)

Event Time Altitude Azimuth Distance (km) Brightness Sun altitude
Rises 17:47:46 0° 350° (N) 3,550 7.6 -8.6°
Reaches altitude 10° 17:50:16 10° 353° (N) 2,606 6.8 -9.0°
Maximum altitude 17:56:13 71° 77° (ENE) 959 4.3 -10.1°
Drops below altitude 10° 18:02:06 10° 162° (SSE) 2,572 6.5 -11.1°
Sets 18:04:33 0° 164° (SSE) 3,501 7.2 -11.5°
